Weather in Ustka

Poland     54˚34′36″N   16˚52′12″E
temp.,
°C
wind,
m/s
gust,
m/s
humid.,
%
clouds,
%
prec.,
mm/h
press.,
hPa
HPBL,
m
17 january, sun
sun1701:00−5˚e368387 0.1 1019310
04:00−6˚se358973 0.0 1019199
07:00−8˚se358837 0.0 1020179
10:00−8˚se34800 0.0 1021215
13:00−6˚se23680 0.0 1022281
16:00−7˚sse22770 0.0 102298
19:00−8˚ssw34815 0.0 1022142
22:00−9˚ssw358054 0.0 1022173
18 january, mon
mon1801:00−10˚ssw358136 0.0 1022182
04:00−10˚ssw468236 0.0 1020196
07:00−10˚s358239 0.0 1020166
10:00−8˚s4677100 0.0 1019235
13:00−5˚s4778100 0.0 1018284
16:00−5˚s5888100 0.0 1016302
19:00−5˚s589495 0.1 1014266
22:00−3˚s6996100 0.6 1012280
19 january, tue
tue1901:00+1˚ssw5998100 1.6 1010264
04:00+2˚wsw6119499 0.4 1008475
07:00+2˚sw5993100 0.6 1008417
10:00+2˚sw599693 0.3 1007370
13:00+2˚sw599896 0.4 1007404
16:00+1˚s4698100 0.1 1005216
19:00+1˚sse5898100 0.2 1005314
22:00+1˚sse5994100 0.0 1004375
20 january, wed
wed2001:00+1˚sse51092100 0.0 1003311
04:00+2˚sse61197100 1.2 1001316
07:00+3˚s5997100 3.1 1000266
10:00+3˚ssw61396100 1.9 1000418
13:00+3˚sw71395100 5.1 1000469
16:00+3˚sw61295100 1.7 1000426
19:00+3˚ssw61294100 3.0 1001352
22:00+3˚ssw61290100 0.2 1001296
21 january, thu
thu2101:00+3˚s51088100 0.2 1001265
04:00+2˚ssw51287100 0.0 999292
07:00+2˚s61382100 0.0 999332
10:00+3˚s598396 0.0 999195
13:00+5˚s6128097 0.0 998442
16:00+5˚ssw71679100 0.0 996531
19:00+4˚ssw7168185 0.0 997483
22:00+3˚ssw6148852 0.0 997399